SWA3522 KBWI-KMDW

Flight info

Callsign SWA3522
Flight time N/A
Altitude 32000
Route FOXHL1 RAMAY Q72 HACKS J149 FWA PANGG7
Aircraft B738/M-SDE2E3FGHIRWXY/LB1

Departure

Time 2026-04-29 13:40
Airport Baltimore/Washington International Thurgood Marshall Airport (KBWI)

Arrival

Time N/A
Airport Chicago Midway International Airport (KMDW)
Time Latitude Longitude Altitude Speed Heading
2026-04-29 13:19 39.17945 -76.67253 153 ft 0 kts 62°
2026-04-29 13:33 39.17940 -76.67265 153 ft 3 kts 62°
2026-04-29 13:34 39.17931 -76.67288 153 ft 3 kts 62°
2026-04-29 13:34 39.17921 -76.67311 153 ft 3 kts 58°
2026-04-29 13:34 39.17911 -76.67329 153 ft 3 kts 19°
2026-04-29 13:34 39.17903 -76.67331 153 ft 1 kts 324°
2026-04-29 13:35 39.17892 -76.67320 153 ft 3 kts 324°
2026-04-29 13:35 39.17883 -76.67313 153 ft 0 kts 324°
2026-04-29 13:37 39.17915 -76.67341 153 ft 13 kts 325°
2026-04-29 13:37 39.17995 -76.67437 155 ft 16 kts 283°
2026-04-29 13:37 39.18034 -76.67559 157 ft 16 kts 324°
2026-04-29 13:38 39.18121 -76.67639 159 ft 16 kts 324°
2026-04-29 13:38 39.18222 -76.67733 162 ft 21 kts 325°
2026-04-29 13:38 39.18358 -76.67857 161 ft 27 kts 322°
2026-04-29 13:38 39.18512 -76.68002 159 ft 27 kts 324°
2026-04-29 13:39 39.18568 -76.68071 158 ft 1 kts 290°
2026-04-29 13:39 39.18569 -76.68079 158 ft 2 kts 279°
2026-04-29 13:39 39.18545 -76.68147 159 ft 13 kts 222°
2026-04-29 13:39 39.18501 -76.68159 159 ft 6 kts 154°
2026-04-29 13:40 39.18404 -76.68075 160 ft 41 kts 144°
2026-04-29 13:40 39.17924 -76.67628 160 ft 127 kts 144°
2026-04-29 13:40 39.17014 -76.66787 314 ft 187 kts 144°
2026-04-29 13:40 39.15913 -76.65751 1272 ft 198 kts 146°
2026-04-29 13:41 39.14700 -76.64856 2151 ft 212 kts 164°
2026-04-29 13:41 39.13194 -76.64643 2627 ft 225 kts 183°
2026-04-29 13:41 39.11658 -76.65131 3127 ft 230 kts 205°
2026-04-29 13:41 39.10394 -76.66382 3756 ft 232 kts 229°
2026-04-29 13:42 39.09629 -76.68240 4388 ft 240 kts 253°
2026-04-29 13:42 39.09542 -76.70425 5045 ft 253 kts 278°
2026-04-29 13:42 39.10240 -76.72545 5692 ft 266 kts 306°
2026-04-29 13:42 39.11675 -76.74057 6325 ft 270 kts 333°
2026-04-29 13:43 39.13487 -76.74729 6961 ft 272 kts 347°
2026-04-29 13:43 39.15332 -76.75167 7548 ft 273 kts 347°
2026-04-29 13:43 39.17200 -76.75682 8173 ft 271 kts 336°
2026-04-29 13:43 39.18685 -76.77096 8800 ft 266 kts 304°
2026-04-29 13:44 39.19482 -76.79215 9460 ft 264 kts 284°
2026-04-29 13:44 39.19837 -76.81554 10132 ft 269 kts 280°
2026-04-29 13:44 39.20156 -76.83958 10724 ft 274 kts 280°
2026-04-29 13:44 39.20483 -76.86383 11326 ft 274 kts 280°
2026-04-29 13:45 39.20820 -76.88795 11941 ft 273 kts 279°
2026-04-29 13:45 39.21162 -76.91199 12569 ft 272 kts 279°
2026-04-29 13:45 39.21509 -76.93621 13036 ft 283 kts 279°
2026-04-29 13:45 39.21876 -76.96183 13214 ft 305 kts 279°
2026-04-29 13:46 39.22134 -76.99000 13386 ft 327 kts 271°
2026-04-29 13:46 39.22149 -77.02021 13685 ft 343 kts 269°
2026-04-29 13:46 39.22144 -77.05128 14263 ft 349 kts 269°
2026-04-29 13:46 39.22166 -77.08267 15005 ft 349 kts 270°
2026-04-29 13:47 39.22128 -77.11390 15733 ft 349 kts 261°
2026-04-29 13:47 39.21402 -77.14380 16409 ft 351 kts 244°
2026-04-29 13:47 39.20019 -77.16978 17108 ft 354 kts 230°
2026-04-29 13:47 39.18307 -77.19278 17815 ft 357 kts 227°
2026-04-29 13:48 39.16546 -77.21546 18450 ft 359 kts 227°
2026-04-29 13:48 39.14773 -77.23823 18986 ft 362 kts 228°
2026-04-29 13:48 39.13005 -77.26115 19460 ft 367 kts 228°
2026-04-29 13:48 39.11211 -77.28464 20038 ft 368 kts 229°
2026-04-29 13:49 39.09420 -77.30821 20605 ft 369 kts 229°
2026-04-29 13:49 39.07620 -77.33191 21157 ft 371 kts 229°
2026-04-29 13:49 39.05892 -77.35657 21647 ft 370 kts 238°
2026-04-29 13:49 39.04717 -77.38588 22129 ft 369 kts 252°
2026-04-29 13:50 39.04144 -77.41811 22657 ft 370 kts 261°
2026-04-29 13:50 39.03806 -77.45102 23162 ft 373 kts 263°
2026-04-29 13:50 39.03502 -77.48424 23647 ft 375 kts 263°
2026-04-29 13:50 39.03202 -77.51766 24051 ft 377 kts 263°
2026-04-29 13:51 39.02892 -77.55124 24469 ft 378 kts 263°
2026-04-29 13:51 39.02573 -77.58482 24909 ft 379 kts 263°
2026-04-29 13:51 39.02245 -77.61842 25453 ft 377 kts 263°
2026-04-29 13:51 39.01914 -77.65189 25915 ft 377 kts 263°